Regional Weather Roundup
Issued by NWS Sterling, VA

Home | Current Version | Previous Version | Graphics & Text | Print | Product List | Glossary On
Versions: 1 2 3 4 5 6 7 8 9 10 11 12 13 14 15 16 17 18 19 20 21 22 23 24 25 26 27 28 29 30 31 32 33 34 35 36 37 38 39 40 41 42 43 44 45 46 47 48 49 50
000
ASUS41 KLWX 300010
RWRLWX

REGIONAL WEATHER ROUNDUP
NATIONAL WEATHER SERVICE BALTIMORE MD/WASHINGTON DC
800 PM EDT MON JUN 29 2015

Note: "FAIR" indicates few or no clouds below 12,000 feet
with no significant weather and/or obstructions to visibility.
 TC=TEMPERATURE CELSIUS

 * =Non NWS site. Station does not report precipitation (e.g. rain,
    snow, etc.), thunder, or fog.

DCZ001-MDZ009-015-VAZ040>042-051-053>054-300100-
WASHINGTON METRO

CITY           SKY/WX    TMP DP  RH WIND       PRES   REMARKS
WASHINGTON NAT PTCLDY    77  62  59 S8        29.93S
DULLES         PTCLDY    76  56  49 S7        29.93R
ANDREWS AFB    CLEAR     76  60  57 S7        29.93S
FT BELVOIR     CLEAR     76  60  58 S2        29.93S HAZE
QUANTICO       CLEAR     80  58  46 SW5       29.93S
COLLEGE PARK*  CLEAR     79  52  38 CALM      29.93R
LEESBURG*      PTCLDY    79  61  53 S13       29.94R
MANASSAS*      CLEAR     75  63  64 SE5         N/A
GAITHERSBURG*  PTCLDY    77  52  41 S5        29.97S

$$

MDZ006>007-011-014-300100-
BALTIMORE METRO

CITY           SKY/WX    TMP DP  RH WIND       PRES   REMARKS
BWI AIRPORT    PTCLDY    77  52  41 S3        29.92R
MD SCIENCE CTR   N/A     80  51  36 MISG      29.91R
MARTIN STATE   PTCLDY    79  63  57 S8        29.94R
ANNAPOLIS      CLEAR     77  53  43 S5        29.93R
FORT MEADE*    CLEAR     70  61  73 CALM      29.95S

$$

MDZ012-015-019>023-300100-
MARYLAND EASTERN SHORE

CITY           SKY/WX    TMP DP  RH WIND       PRES   REMARKS
OCEAN CITY     CLEAR     74  64  71 S6        29.96S
SALISBURY      CLEAR     75  60  59 S3        29.96R
BAY BRIDGE AP*   N/A     77  55  47 S5        29.94R
CAMBRIDGE*     CLEAR     77  55  47 CALM      29.95R
EASTON*        PTCLDY    79  59  50 S7        29.98S

$$

MDZ017>025-300100-
SOUTHERN MARYLAND

CITY           SKY/WX    TMP DP  RH WIND       PRES   REMARKS
PATUXENT RIVER PTCLDY    76  61  59 SE5       29.94S
ST INIGOES     CLEAR     77  63  61 SE5       29.94R
LEONARDTOWN*   CLEAR     73  59  60 CALM      29.96S

$$

MDZ003>005-300100-
NORTH CENTRAL MARYLAND

CITY           SKY/WX    TMP DP  RH WIND       PRES   REMARKS
FREDERICK*     MOCLDY    75  61  60 S3        29.95R
HAGERSTOWN APT CLOUDY    78  52  40 S8        29.92R
WESTMINSTER*   PTCLDY    79  54  41 MISG      29.95R

$$

MDZ501>502-300100-
WESTERN MARYLAND

CITY           SKY/WX    TMP DP  RH WIND       PRES   REMARKS
OAKLAND*       CLOUDY    63  63 100 SE7       29.97S
CUMBERLAND*    MOCLDY    73  57  56 CALM      29.94R

$$

VAZ025>031-300100-
SHENANDOAH VALLEY

CITY           SKY/WX    TMP DP  RH WIND       PRES   REMARKS
WINCHESTER*    PTCLDY    75  59  57 S7        29.93R
FRONT ROYAL*   MOCLDY    72  59  64 SW3       29.92R
LURAY*         CLOUDY    77  63  61 CALM      29.94R
NEW MARKET*    CLOUDY    74  59  60 CALM      29.92R
STAUNTON*      CLOUDY    76  60  57 S3        29.97R
WAYNESBORO*    MOCLDY    73  58  60 S3        29.97R

$$

WVZ021-048>050-054>055-300100-
EASTERN WEST VIRGINIA PANHANDLE

CITY           SKY/WX    TMP DP  RH WIND       PRES   REMARKS
MARTINSBURG    PTCLDY    74  57  55 SE6       29.93R
PETERSBURG*    CLOUDY    75  56  52 CALM      29.92S

$$

VAZ036>039-050-300100-
CENTRAL FOOTHILLS

CITY           SKY/WX    TMP DP  RH WIND       PRES   REMARKS
CHARLOTTESVILL MOCLDY    74  59  59 S5        29.94R
CULPEPER*      CLEAR     75  60  60 CALM      29.94R
ORANGE*        PTCLDY    75  61  60 CALM      29.96R
GORDONSVILLE*  FAIR      73  64  73 CALM      29.94R
WARRENTON*     FAIR      76  65  68 CALM      29.93R

$$

VAZ055>057-300100-
NORTH AND CENTRAL PIEDMONT

CITY           SKY/WX    TMP DP  RH WIND       PRES   REMARKS
FREDERICKSBRG* CLEAR     80  63  56 S3        29.93R
STAFFORD*      CLEAR     74  58  56 S3        29.97S

$$

NCZ024-NYZ072-PAZ021-071-VAZ022-071-300100-
OTHER REGIONAL OBSERVATIONS

CITY           SKY/WX    TMP DP  RH WIND       PRES   REMARKS
NEW YORK CITY  CLEAR     75  54  47 VRB5      29.94S
PHILADELPHIA   PTCLDY    79  57  46 S7        29.92S
PITTSBURGH     LGT RAIN  66  62  87 NE5       29.89S
ROANOKE        MOCLDY    77  57  50 S6        29.98R
RICHMOND       PTCLDY    80  63  55 S3        29.94R
RALEIGH        PTCLDY    82  63  52 S5        29.94R

$$

ANZ530>537-300100-
MARINE OBSERVATIONS

STATION/POSITION TIME  TEMP    WIND        PRES
                       AIR SEA DIR/SP/G
                 (UTC) (F)     (DEG/KT/KT) (MB)
THOMAS PT LIGHT  NOT AVBL
BALT KEY BRIDGE  2300   80     190/  5/  7 1012.8F
COVE POINT       2300   76     180/ 12/ 14 1014.5F
LEWISETTA        2300   81 81  210/  6/  8 1013.4F
SOLOMONS ISLAND  2300      80                N/A
PINEY POINT      2300          160/  2/  4   N/A

$$



USA.gov is the U.S. government's official web portal to all federal, state and local government web resources and services.